Time,TemperatureF,DewpointF,PressureIn,WindDirection,WindDirectionDegrees,WindSpeedMPH,WindSpeedGustMPH,Humidity,HourlyPrecipIn,Conditions,Clouds,dailyrainin,SoftwareType,DateUTC
2013-02-14 00:01:00,22.0,20.0,-100.00,NNE,25,18.0,22.0,90,-99.99,,,0.00,,2013-02-14 07:01:00,
2013-02-14 00:11:00,22.0,20.0,-100.00,NNE,25,18.0,22.0,90,-99.99,,,0.00,,2013-02-14 07:11:00,
2013-02-14 00:21:00,22.0,20.0,-100.00,NNE,25,18.0,22.0,90,-99.99,,,0.00,,2013-02-14 07:21:00,
2013-02-14 00:52:00,21.0,18.0,-100.00,NNE,15,14.0,16.0,88,-99.99,,,0.00,,2013-02-14 07:52:00,
2013-02-14 01:01:00,21.0,18.0,-100.00,NNE,15,14.0,16.0,88,-99.99,,,0.00,,2013-02-14 08:01:00,
2013-02-14 01:11:00,21.0,18.0,-100.00,NNE,15,14.0,16.0,88,-99.99,,,0.00,,2013-02-14 08:11:00,
2013-02-14 01:21:00,21.0,18.0,-100.00,NNE,15,14.0,16.0,88,-99.99,,,0.00,,2013-02-14 08:21:00,
2013-02-14 01:52:00,21.0,18.0,-100.00,North,-999,0.0,0.0,90,-99.99,,,0.00,,2013-02-14 08:52:00,
2013-02-14 02:01:00,21.0,18.0,-100.00,North,-999,0.0,0.0,90,-99.99,,,0.00,,2013-02-14 09:01:00,
2013-02-14 02:11:00,21.0,18.0,-100.00,North,-999,0.0,0.0,90,-99.99,,,0.00,,2013-02-14 09:11:00,
2013-02-14 02:21:00,21.0,18.0,-100.00,North,-999,0.0,0.0,90,-99.99,,,0.00,,2013-02-14 09:21:00,
2013-02-14 02:52:00,20.0,18.0,-100.00,NNW,340,8.0,8.0,90,-99.99,,,0.00,,2013-02-14 09:52:00,
2013-02-14 03:02:00,20.0,18.0,-100.00,NNW,340,8.0,8.0,90,-99.99,,,0.00,,2013-02-14 10:02:00,
2013-02-14 03:11:00,20.0,18.0,-100.00,NNW,340,8.0,8.0,90,-99.99,,,0.00,,2013-02-14 10:11:00,
2013-02-14 03:21:00,20.0,18.0,-100.00,NNW,340,8.0,8.0,90,-99.99,,,0.00,,2013-02-14 10:21:00,
2013-02-14 03:52:00,20.0,17.0,-100.00,WNW,300,4.0,4.0,90,-99.99,,,0.00,,2013-02-14 10:52:00,
2013-02-14 04:01:00,20.0,17.0,-100.00,WNW,300,4.0,4.0,90,-99.99,,,0.00,,2013-02-14 11:01:00,
2013-02-14 04:11:00,20.0,17.0,-100.00,WNW,300,4.0,4.0,90,-99.99,,,0.00,,2013-02-14 11:11:00,
2013-02-14 04:21:00,20.0,17.0,-100.00,WNW,300,4.0,4.0,90,-99.99,,,0.00,,2013-02-14 11:21:00,
2013-02-14 04:52:00,19.0,16.0,-100.00,West,275,5.0,6.0,88,-99.99,,,0.00,,2013-02-14 11:52:00,
2013-02-14 05:01:00,19.0,16.0,-100.00,West,275,5.0,6.0,88,-99.99,,,0.00,,2013-02-14 12:01:00,
2013-02-14 05:11:00,19.0,16.0,-100.00,West,275,5.0,6.0,88,-99.99,,,0.00,,2013-02-14 12:11:00,
2013-02-14 05:22:00,19.0,16.0,-100.00,West,275,5.0,6.0,88,-99.99,,,0.00,,2013-02-14 12:22:00,
2013-02-14 05:53:00,19.0,16.0,-100.00,WSW,240,4.0,5.0,88,-99.99,,,0.00,,2013-02-14 12:53:00,
2013-02-14 06:01:00,19.0,16.0,-100.00,WSW,240,4.0,5.0,88,-99.99,,,0.00,,2013-02-14 13:01:00,
2013-02-14 06:11:00,19.0,16.0,-100.00,WSW,240,4.0,5.0,88,-99.99,,,0.00,,2013-02-14 13:11:00,
2013-02-14 06:21:00,19.0,16.0,-100.00,WSW,240,4.0,5.0,88,-99.99,,,0.00,,2013-02-14 13:21:00,
2013-02-14 06:51:00,20.0,17.0,-100.00,SW,235,4.0,5.0,89,-99.99,,,0.00,,2013-02-14 13:51:00,
2013-02-14 07:01:00,20.0,17.0,-100.00,SW,235,4.0,5.0,89,-99.99,,,0.00,,2013-02-14 14:01:00,
2013-02-14 07:11:00,20.0,17.0,-100.00,SW,235,4.0,5.0,89,-99.99,,,0.00,,2013-02-14 14:11:00,
2013-02-14 07:21:00,20.0,17.0,-100.00,SW,235,4.0,5.0,89,-99.99,,,0.00,,2013-02-14 14:21:00,
2013-02-14 07:52:00,18.0,13.0,-100.00,SSE,155,5.0,6.0,82,-99.99,,,0.00,,2013-02-14 14:52:00,
2013-02-14 08:01:00,18.0,13.0,-100.00,SSE,155,5.0,6.0,82,-99.99,,,0.00,,2013-02-14 15:01:00,
2013-02-14 08:11:00,18.0,13.0,-100.00,SSE,155,5.0,6.0,82,-99.99,,,0.00,,2013-02-14 15:11:00,
2013-02-14 08:21:00,18.0,13.0,-100.00,SSE,155,5.0,6.0,82,-99.99,,,0.00,,2013-02-14 15:21:00,
2013-02-14 08:52:00,16.0,12.0,-100.00,SSE,150,9.0,9.0,86,-99.99,,,0.00,,2013-02-14 15:52:00,
2013-02-14 09:01:00,16.0,12.0,-100.00,SSE,150,9.0,9.0,86,-99.99,,,0.00,,2013-02-14 16:01:00,
2013-02-14 09:11:00,16.0,12.0,-100.00,SSE,150,9.0,9.0,86,-99.99,,,0.00,,2013-02-14 16:11:00,
2013-02-14 09:21:00,16.0,12.0,-100.00,SSE,150,9.0,9.0,86,-99.99,,,0.00,,2013-02-14 16:21:00,
2013-02-14 09:52:00,21.0,16.0,-100.00,SSE,155,6.0,6.0,82,-99.99,,,0.00,,2013-02-14 16:52:00,
2013-02-14 10:01:00,21.0,16.0,-100.00,SSE,155,6.0,6.0,82,-99.99,,,0.00,,2013-02-14 17:01:00,
2013-02-14 10:11:00,21.0,16.0,-100.00,SSE,155,6.0,6.0,82,-99.99,,,0.00,,2013-02-14 17:11:00,
2013-02-14 10:21:00,21.0,16.0,-100.00,SSE,155,6.0,6.0,82,-99.99,,,0.00,,2013-02-14 17:21:00,
2013-02-14 10:52:00,24.0,17.0,-100.00,SSE,150,6.0,6.0,74,-99.99,,,0.00,,2013-02-14 17:52:00,
2013-02-14 11:01:00,24.0,17.0,-100.00,SSE,150,6.0,6.0,74,-99.99,,,0.00,,2013-02-14 18:01:00,
2013-02-14 11:11:00,24.0,17.0,-100.00,SSE,150,6.0,6.0,74,-99.99,,,0.00,,2013-02-14 18:11:00,
2013-02-14 11:22:00,24.0,17.0,-100.00,SSE,150,6.0,6.0,74,-99.99,,,0.00,,2013-02-14 18:22:00,
2013-02-14 11:52:00,25.0,17.0,-100.00,SE,145,13.0,14.0,70,-99.99,,,0.00,,2013-02-14 18:52:00,
2013-02-14 12:02:00,25.0,17.0,-100.00,SE,145,13.0,14.0,70,-99.99,,,0.00,,2013-02-14 19:02:00,
2013-02-14 12:11:00,25.0,17.0,-100.00,SE,145,13.0,14.0,70,-99.99,,,0.00,,2013-02-14 19:11:00,
2013-02-14 12:21:00,25.0,17.0,-100.00,SE,145,13.0,14.0,70,-99.99,,,0.00,,2013-02-14 19:21:00,
2013-02-14 12:52:00,31.0,18.0,-100.00,SSE,155,8.0,9.0,59,-99.99,,,0.00,,2013-02-14 19:52:00,
2013-02-14 13:01:00,31.0,18.0,-100.00,SSE,155,8.0,9.0,59,-99.99,,,0.00,,2013-02-14 20:01:00,
2013-02-14 13:11:00,31.0,18.0,-100.00,SSE,155,8.0,9.0,59,-99.99,,,0.00,,2013-02-14 20:11:00,
2013-02-14 13:21:00,31.0,18.0,-100.00,SSE,155,8.0,9.0,59,-99.99,,,0.00,,2013-02-14 20:21:00,
2013-02-14 13:52:00,33.0,19.0,-100.00,SSE,160,10.0,11.0,57,-99.99,,,0.00,,2013-02-14 20:52:00,
2013-02-14 14:02:00,33.0,19.0,-100.00,SSE,160,10.0,11.0,57,-99.99,,,0.00,,2013-02-14 21:02:00,
2013-02-14 14:11:00,33.0,19.0,-100.00,SSE,160,10.0,11.0,57,-99.99,,,0.00,,2013-02-14 21:11:00,
2013-02-14 14:21:00,33.0,19.0,-100.00,SSE,160,10.0,11.0,57,-99.99,,,0.00,,2013-02-14 21:21:00,
2013-02-14 14:52:00,34.0,20.0,-100.00,SSE,165,8.0,9.0,55,-99.99,,,0.00,,2013-02-14 21:52:00,
2013-02-14 15:02:00,34.0,20.0,-100.00,SSE,165,8.0,9.0,55,-99.99,,,0.00,,2013-02-14 22:02:00,
2013-02-14 15:11:00,34.0,20.0,-100.00,SSE,165,8.0,9.0,55,-99.99,,,0.00,,2013-02-14 22:11:00,
2013-02-14 15:21:00,34.0,20.0,-100.00,SSE,165,8.0,9.0,55,-99.99,,,0.00,,2013-02-14 22:21:00,
2013-02-14 15:52:00,36.0,20.0,-100.00,South,190,5.0,6.0,52,-99.99,,,0.00,,2013-02-14 22:52:00,
2013-02-14 16:01:00,36.0,20.0,-100.00,South,190,5.0,6.0,52,-99.99,,,0.00,,2013-02-14 23:01:00,
2013-02-14 16:11:00,36.0,20.0,-100.00,South,190,5.0,6.0,52,-99.99,,,0.00,,2013-02-14 23:11:00,
2013-02-14 16:21:00,36.0,20.0,-100.00,South,190,5.0,6.0,52,-99.99,,,0.00,,2013-02-14 23:21:00,
2013-02-14 16:52:00,33.0,22.0,-100.00,WSW,245,8.0,8.0,62,-99.99,,,0.00,,2013-02-14 23:52:00,
2013-02-14 17:01:00,33.0,22.0,-100.00,WSW,245,8.0,8.0,62,-99.99,,,0.00,,2013-02-15 00:01:00,
2013-02-14 17:11:00,33.0,22.0,-100.00,WSW,245,8.0,8.0,62,-99.99,,,0.00,,2013-02-15 00:11:00,
2013-02-14 17:21:00,33.0,22.0,-100.00,WSW,245,8.0,8.0,62,-99.99,,,0.00,,2013-02-15 00:21:00,
2013-02-14 17:52:00,28.0,20.0,-100.00,West,260,5.0,6.0,72,-99.99,,,0.00,,2013-02-15 00:52:00,
2013-02-14 18:01:00,28.0,20.0,-100.00,West,260,5.0,6.0,72,-99.99,,,0.00,,2013-02-15 01:01:00,
2013-02-14 18:11:00,28.0,20.0,-100.00,West,260,5.0,6.0,72,-99.99,,,0.00,,2013-02-15 01:11:00,
2013-02-14 18:21:00,28.0,20.0,-100.00,West,260,5.0,6.0,72,-99.99,,,0.00,,2013-02-15 01:21:00,
2013-02-14 18:52:00,26.0,18.0,-100.00,WNW,295,3.0,4.0,71,-99.99,,,0.00,,2013-02-15 01:52:00,
2013-02-14 19:01:00,26.0,18.0,-100.00,WNW,295,3.0,4.0,71,-99.99,,,0.00,,2013-02-15 02:01:00,
2013-02-14 19:11:00,26.0,18.0,-100.00,WNW,295,3.0,4.0,71,-99.99,,,0.00,,2013-02-15 02:11:00,
2013-02-14 19:21:00,26.0,18.0,-100.00,WNW,295,3.0,4.0,71,-99.99,,,0.00,,2013-02-15 02:21:00,
2013-02-14 19:52:00,29.0,17.0,-100.00,WNW,300,9.0,11.0,60,-99.99,,,0.00,,2013-02-15 02:52:00,
2013-02-14 20:02:00,29.0,17.0,-100.00,WNW,300,9.0,11.0,60,-99.99,,,0.00,,2013-02-15 03:02:00,
2013-02-14 20:11:00,29.0,17.0,-100.00,WNW,300,9.0,11.0,60,-99.99,,,0.00,,2013-02-15 03:11:00,
2013-02-14 20:21:00,29.0,17.0,-100.00,WNW,300,9.0,11.0,60,-99.99,,,0.00,,2013-02-15 03:21:00,
2013-02-14 20:52:00,27.0,16.0,-100.00,West,270,9.0,10.0,61,-99.99,,,0.00,,2013-02-15 03:52:00,
2013-02-14 21:01:00,27.0,16.0,-100.00,West,270,9.0,10.0,61,-99.99,,,0.00,,2013-02-15 04:01:00,
2013-02-14 21:11:00,27.0,16.0,-100.00,West,270,9.0,10.0,61,-99.99,,,0.00,,2013-02-15 04:11:00,
2013-02-14 21:21:00,27.0,16.0,-100.00,West,270,9.0,10.0,61,-99.99,,,0.00,,2013-02-15 04:21:00,
2013-02-14 21:52:00,27.0,15.0,-100.00,West,260,11.0,11.0,60,-99.99,,,0.00,,2013-02-15 04:52:00,
2013-02-14 22:02:00,27.0,15.0,-100.00,West,260,11.0,11.0,60,-99.99,,,0.00,,2013-02-15 05:02:00,
2013-02-14 22:11:00,27.0,15.0,-100.00,West,260,11.0,11.0,60,-99.99,,,0.00,,2013-02-15 05:11:00,
2013-02-14 22:22:00,27.0,15.0,-100.00,West,260,11.0,11.0,60,-99.99,,,0.00,,2013-02-15 05:22:00,
2013-02-14 22:52:00,25.0,14.0,-100.00,West,280,11.0,14.0,63,-99.99,,,0.00,,2013-02-15 05:52:00,
2013-02-14 23:02:00,25.0,14.0,-100.00,West,280,11.0,14.0,63,-99.99,,,0.00,,2013-02-15 06:02:00,
2013-02-14 23:11:00,25.0,14.0,-100.00,West,280,11.0,14.0,63,-99.99,,,0.00,,2013-02-15 06:11:00,
2013-02-14 23:21:00,25.0,14.0,-100.00,West,280,11.0,14.0,63,-99.99,,,0.00,,2013-02-15 06:21:00,
2013-02-14 23:52:00,25.0,14.0,-100.00,West,265,8.0,8.0,63,-99.99,,,0.00,,2013-02-15 06:52:00,